User: anonymous   Login
Location: Krakow
(50.0830°N, 19.9170°E)
Time: 12:10:03
(UTC+02:00)
Language:

Transit 2A - Orbit

View from above orbital plane
View from above orbital plane
View from above satellite
View from above satellite

Ground track
Ground track

The orbit data is extracted from the following two-line orbital elements,

1 00045U 60007A   24149.46720664  .00000388  00000-0  12131-3 0  9997
2 00045  66.6922 181.6461 0254755 344.6249  14.7208 14.34711449272448
Epoch (UTC): 28 May 2024 11:12:46
Eccentricity: 0.0254755
inclination: 66.6922°
perigee height: 594 km
apogee height: 958 km
right ascension of ascending node: 181.6461°
argument of perigee: 344.6249°
revolutions per day: 14.34711449
mean anomaly at epoch: 14.7208°
orbit number at epoch: 27244

The dashed part of the orbit path shows where the satellite is in the earth's shadow,  

DLR